Location: Dalton
(42.4737°N, 73.1662°W)
Time: 14:01:49
(UTC+00:00)

Envisat - Visible Passes

Search period start: 20 September 2024 00:00
Search period end: 30 September 2024 00:00
Orbit: 762 x 764 km, 98.3° (Epoch: 19 September)

Date Brightness Start Highest point End Pass type
(mag) Time Alt. Az. Time Alt. Az. Time Alt. Az.
20 Sep 3.7 07:41:41 10° NNE 07:46:23 51° E 07:46:23 51° E visible
20 Sep 4.3 09:21:31 10° NNW 09:25:12 21° WNW 09:26:31 19° W visible
21 Sep 5.0 07:04:57 10° NE 07:08:22 23° E 07:08:22 23° E visible
21 Sep 3.3 08:43:18 10° N 08:48:05 43° WNW 08:48:31 42° W visible
22 Sep 2.9 08:05:37 10° NNE 08:10:30 82° NE 08:10:30 82° NE visible
22 Sep 4.8 09:46:44 10° NNW 09:48:56 13° WNW 09:50:39 11° W visible
23 Sep 4.3 07:28:27 10° NNE 07:32:30 37° ENE 07:32:30 37° ENE visible
23 Sep 4.0 09:07:45 10° N 09:11:57 27° WNW 09:12:38 26° W visible
24 Sep 5.4 06:52:05 10° NE 06:54:28 17° ENE 06:54:28 17° ENE visible
24 Sep 3.0 08:29:45 10° N 08:34:37 57° WNW 08:34:37 57° WNW visible
25 Sep 3.5 07:52:15 10° NNE 07:56:37 58° ENE 07:56:37 58° ENE visible
25 Sep 4.5 09:32:34 10° NNW 09:35:43 17° WNW 09:36:45 16° WNW visible
26 Sep 4.8 07:15:17 10° NE 07:18:36 27° ENE 07:18:36 27° ENE visible
26 Sep 3.6 08:54:06 10° N 08:58:38 34° WNW 08:58:44 34° WNW visible
27 Sep 5.8 06:39:34 10° ENE 06:40:34 12° ENE 06:40:34 12° ENE visible
27 Sep 3.1 08:16:17 10° N 08:20:43 65° NNW 08:20:43 65° NNW visible
27 Sep 5.0 09:58:51 10° NW 09:59:24 10° WNW 09:59:58 10° WNW visible
28 Sep 4.1 07:38:56 10° NNE 07:42:41 41° ENE 07:42:41 41° ENE visible
28 Sep 4.2 09:18:40 10° NNW 09:22:27 22° WNW 09:22:50 21° WNW visible
29 Sep 5.3 07:02:15 10° NE 07:04:39 19° ENE 07:04:39 19° ENE visible
29 Sep 3.4 08:40:29 10° N 08:44:48 43° NW 08:44:48 43° NW visible
